Погода в Тырговиште

Болгария     43°14′51″N   26°33′39″E
темп.,
°C
ветер,
м/с
пор.,
м/с
влажн.,
%
обл.,
%
осадки,
мм/ч
давл.,
гПа
погр.,
м
14 апреля, ср
ср1400:00+10вюв2397100 4.8 1013217
03:00+10з389596 8.8 1012500
06:00+8зюз229536 0.1 101239
09:00+10з4686100 0.1 1012538
12:00+6зсз71295100 3.8 1014640
15:00+7зсз8117994 4.4 1014980
18:00+9зсз7117073 0.0 10141294
21:00+6зсз7127099 0.0 1016907
15 апреля, чт
чт1500:00+4з713745 0.0 1017865
03:00+2з715795 0.0 1018787
06:00+2з716805 0.0 1019794
09:00+4з9147262 0.0 1019962
12:00+7з81165100 0.0 10191159
15:00+10з8955100 0.0 10181639
18:00+10зсз686015 0.0 10171556
21:00+5з39745 0.0 1019217
16 апреля, пт
пт1600:00+5з512715 0.0 1020475
03:00+4з714702 0.0 1020639
06:00+3з714700 0.0 1020562
09:00+5з812644 0.0 1020862
12:00+9з710525 0.0 10201225
15:00+11з68474 0.0 10201487
18:00+11зсз465376 0.0 10201249
21:00+7зюз1165100 0.0 102010
17 апреля, сб
сб1700:00+5ююв1169100 0.0 102110
03:00+5вюв2271100 0.0 102012
06:00+5вюв2274100 0.0 101945
09:00+7юв388093 0.1 1020474
12:00+7юв5981100 0.4 1019575
15:00+7вюв61183100 1.1 1017789
18:00+5вюв61294100 6.2 1016670
21:00+5вюв4109488 7.7 1017560
18 апреля, вс
вс1800:00+5вюв3897100 0.0 1016430
03:00+5в3897100 0.0 1016427
06:00+5в2797100 0.1 1016399
09:00+5в2797100 0.4 1016395
12:00+6в2797100 0.1 1017456
15:00+7в2697100 0.1 1016437
18:00+8в2698100 0.0 1016409
21:00+8в2599100 0.0 1017415